Kansas Department of Transportation
RWIS(Road and Runway Information System) Map and Weather Data





Station
Surface
Air
Wind
Site IDSensor TypeLocationTemperature (°F)Temperature (°F)Humidity (%)Speed (mi/h)Gusts (mi/h)DirectionTime
123002AtmosphericBonner Springs 757324SSESep 20 2019 8:55AM
123002ApproachBonner Springs82     Sep 20 2019 8:55AM
123002DeckBonner Springs82     Sep 20 2019 8:55AM
123014AtmosphericBull Creek 738347SSWSep 20 2019 8:55AM
123014DeckBull Creek79     Sep 20 2019 8:55AM
123014DepartureBull Creek81     Sep 20 2019 8:55AM
123015AtmosphericLeavenworth 758326SSep 20 2019 8:55AM
123015DeckLeavenworth82     Sep 20 2019 8:55AM
123015DepartureLeavenworth84     Sep 20 2019 8:55AM
123020AtmosphericMayetta 7383710SSESep 20 2019 8:55AM
123020RoadwayMayettaUnavailable     Sep 20 2019 8:55AM
123020DeckMayettaUnavailable     Sep 20 2019 8:55AM
505000AtmosphericKTA 1 729126ESESep 20 2019 8:50AM
505000ApproachKTA 173     Sep 20 2019 8:50AM
505000DeckKTA 175     Sep 20 2019 8:50AM
505001AtmosphericKTA 2 729924SESep 20 2019 8:50AM
505001ApproachKTA 273     Sep 20 2019 8:50AM
505001DeckKTA 275     Sep 20 2019 8:50AM
505002AtmosphericKTA 3 689924SESep 20 2019 8:50AM
505002ApproachKTA 379     Sep 20 2019 8:50AM
505002DeckKTA 375     Sep 20 2019 8:50AM
505003AtmosphericKTA 4 728848NSep 20 2019 8:50AM
505003ApproachKTA 475     Sep 20 2019 8:50AM
505003DeckKTA 477     Sep 20 2019 8:50AM
505004AtmosphericKTA 5 7299711WSep 20 2019 8:50AM
505004RoadwayKTA 579     Sep 20 2019 8:50AM
505004RoadwayKTA 579     Sep 20 2019 8:50AM
505005AtmosphericKTA 6 758824SESep 20 2019 8:50AM
505005Approach KTA 684     Sep 20 2019 8:50AM
505005DeckKTA 682     Sep 20 2019 8:50AM
505006AtmosphericKTA 7 739447SSESep 20 2019 8:50AM
505006ApproachKTA 784     Sep 20 2019 8:50AM
505006DeckKTA 779     Sep 20 2019 8:50AM
505007AtmosphericKTA 8 739647SSESep 20 2019 8:50AM
505007ApproachKTA 879     Sep 20 2019 8:50AM
505007DeckKTA 879     Sep 20 2019 8:50AM
505008AtmosphericKTA 9 731124SSESep 20 2019 8:50AM
505008ApproachKTA 981     Sep 20 2019 8:50AM
505008DeckKTA 979     Sep 20 2019 8:50AM
505009AtmosphericKTA 10 779912SSWSep 20 2019 8:50AM
505009ApproachKTA 1081     Sep 20 2019 8:50AM
505009DeckKTA 1077     Sep 20 2019 8:50AM
505010AtmosphericWebb 729657ENESep 20 2019 8:55AM
505010DeckWebb77     Sep 20 2019 8:55AM
505010NullWebb79     Sep 20 2019 8:55AM
505014AtmosphericI-135 7286511SSESep 20 2019 8:50AM
505014ApproachI-13581     Sep 20 2019 9:00AM
505014DeckI-13581     Sep 20 2019 9:00AM
540000AtmosphericBlue Rapids 758426SSESep 20 2019 8:55AM
540000DeckBlue Rapids77     Sep 20 2019 8:55AM
540000DepartureBlue Rapids82     Sep 20 2019 8:55AM
540002AtmosphericWestgate 777549SESep 20 2019 8:55AM
540002DeckWestgate82     Sep 20 2019 8:55AM
540002DepartureWestgateUnavailable     Sep 20 2019 8:55AM
540003AtmosphericEmporia 737827SSep 20 2019 8:55AM
540003ApproachEmporia82     Sep 20 2019 8:55AM
540003DeckEmporia81     Sep 20 2019 8:55AM
540005AtmosphericLawrence 758017ESep 20 2019 8:55AM
540005ApproachLawrence82     Sep 20 2019 8:55AM
540005DeckLawrence82     Sep 20 2019 8:55AM
540006AtmosphericTroy 77912 SESep 20 2019 8:55AM
540006DeckTroy81     Sep 20 2019 8:55AM
540006DepartureTroy84     Sep 20 2019 8:55AM
540007AtmosphericManhattan 758124SSESep 20 2019 8:55AM
540007DepartureManhattan79     Sep 20 2019 8:55AM
540007DeckManhattan82     Sep 20 2019 8:55AM
541001AtmosphericSyracuse 639047ESESep 20 2019 8:55AM
541001Out of Service for WinterSyracuse68     Sep 20 2019 8:55AM
541001DeckSyracuse66     Sep 20 2019 8:55AM
541002AtmosphericLiberal 668227ESESep 20 2019 8:55AM
541002ApproachLiberalUnavailable     Sep 20 2019 8:55AM
541002DeckLiberalUnavailable     Sep 20 2019 8:55AM
541003AtmosphericFord 709347SESep 20 2019 8:55AM
541003DeckFord75     Sep 20 2019 8:55AM
541003DepartureFord79     Sep 20 2019 8:55AM
541004AtmosphericScott 6490912WSWSep 20 2019 8:55AM
541004DepartureScott72     Sep 20 2019 8:55AM
541005AtmosphericNess 7273813SSESep 20 2019 8:55AM
541005DeckNess79     Sep 20 2019 8:55AM
541005DepartureNess82     Sep 20 2019 8:55AM
543000AtmosphericJunction City 7384610NNESep 20 2019 8:55AM
543000ApproachJunction City84     Sep 20 2019 8:55AM
543000DeckJunction City79     Sep 20 2019 8:55AM
543001AtmosphericEllsworth 73871013SSep 20 2019 8:55AM
543001RoadwayEllsworth81     Sep 20 2019 8:55AM
543002AtmosphericMcPherson 73891114SSep 20 2019 8:55AM
543002ApproachMcPherson82     Sep 20 2019 8:55AM
543002DeckMcPherson79     Sep 20 2019 8:55AM
543003AtmosphericSalina 7066913SESep 20 2019 8:55AM
543003DepartureSalina84     Sep 20 2019 8:55AM
543003RoadwaySalina82     Sep 20 2019 8:55AM
543005AtmosphericPeabody 729400WNWSep 20 2019 8:55AM
543005ApproachPeabody81     Sep 20 2019 8:55AM
543005DeckPeabodyUnavailable     Sep 20 2019 8:55AM
560000AtmosphericEdson 6185812SSep 20 2019 8:55AM
560000RoadwayEdson66     Sep 20 2019 8:55AM
560000RoadwayEdson68     Sep 20 2019 8:55AM
560001AtmosphericOakley 6695912SESep 20 2019 8:55AM
560001ApproachOakley72     Sep 20 2019 8:55AM
560001DeckOakley72     Sep 20 2019 8:55AM
560002AtmosphericAtwood 6869912SSESep 20 2019 8:55AM
560002ApproachAtwood70     Sep 20 2019 8:55AM
560002DeckAtwoodUnavailable     Sep 20 2019 8:55AM
560004AtmosphericWakeeney 7079912SSESep 20 2019 8:55AM
560004ApproachWakeeney77     Sep 20 2019 8:55AM
560004DeckWakeeney75     Sep 20 2019 8:55AM
560005AtmosphericWalker 707769SSESep 20 2019 8:55AM
560005ApproachWalker79     Sep 20 2019 8:55AM
560005DeckWalker77     Sep 20 2019 8:55AM
560006AtmosphericBow Creek(Stockton) 7287711SESep 20 2019 8:55AM
560006ApproachBow Creek(Stockton)Unavailable     Sep 20 2019 8:55AM
560006DeckBow Creek(Stockton)79     Sep 20 2019 8:55AM
560007AtmosphericLebanon 708447SESep 20 2019 8:55AM
560007ApproachLebanon79     Sep 20 2019 8:55AM
560007DeckLebanon75     Sep 20 2019 8:55AM
560008AtmosphericWallace 638823ESESep 20 2019 8:55AM
560008ApproachWallace68     Sep 20 2019 8:55AM
560008DeckWallace64     Sep 20 2019 8:55AM
572000AtmosphericGreat Bend 7286710SSep 20 2019 8:55AM
572000ApproachGreat Bend79     Sep 20 2019 8:55AM
572000DeckGreat Bend75     Sep 20 2019 8:55AM
572001AtmosphericPratt 728114SESep 20 2019 8:55AM
572001ApproachPratt79     Sep 20 2019 8:55AM
572001DeckPratt79     Sep 20 2019 8:55AM
572002AtmosphericAnthony 728548SESep 20 2019 8:55AM
572002ApproachAnthony81     Sep 20 2019 8:55AM
572002DeckAnthony81     Sep 20 2019 8:55AM
573000AtmosphericEureka 729336ESESep 20 2019 8:55AM
573000DeckEureka79     Sep 20 2019 8:55AM
573000DepartureEureka77     Sep 20 2019 8:55AM
573001AtmosphericGarnett 738156SSESep 20 2019 8:55AM
573001ApproachGarnett79     Sep 20 2019 8:55AM
573001DeckGarnett77     Sep 20 2019 8:55AM
573002AtmosphericCaney 735712SESep 20 2019 8:55AM
573002RoadwayCaney79     Sep 20 2019 7:35AM
573003AtmosphericChetopa 738713ESESep 20 2019 8:55AM
573003DeckChetopa81     Sep 20 2019 8:55AM
573003DeckChetopa81     Sep 20 2019 8:55AM
573003DepartureChetopa82     Sep 20 2019 8:55AM
573004AtmosphericChanute 738625ESESep 20 2019 8:55AM
573004ApproachChanute82     Sep 20 2019 8:55AM
573004DeckChanute79     Sep 20 2019 8:55AM